Crescent City, CA

4:22 PM PDT on April 26, 2018 (GMT -0700)
McNamara

Weather History for KCEC - October, 2012

Change the Weather History Date:

Tuesday, October 16, 2012

  Actual Average Record
Temperature  
Mean Temperature 58 °F 54 °F  
Max Temperature 61 °F 61 °F 83 °F (1960)
Min Temperature 55 °F 46 °F 35 °F (1971)
Degree Days  
Heating Degree Days 8 12  
Month to date heating degree days 177  
Since 1 July heating degree days 981  
Cooling Degree Days 0 0  
Month to date cooling degree days 0  
Year to date cooling degree days 0  
Growing Degree Days 7 (Base 50)    
Moisture  
Dew Point 54 °F    
Average Humidity 88    
Maximum Humidity 100    
Minimum Humidity 75    
Precipitation  
Precipitation 1.02 in 0.13 in 2.99 in (2016)
Month to date precipitation 2.57 1.44  
Year to date precipitation 46.72 40.23  
Since 1 July precipitation 3.34  
Snow  
Snow 0.00 in - - ()
Month to date snowfall 0.0  
Since 1 July snowfall 0.0  
Since 1 September snowfall 0.0  
Snow Depth -    
Sea Level Pressure  
Sea Level Pressure 30.07 in    
Wind  
Wind Speed 13 mph (NNW)    
Max Wind Speed 25 mph    
Max Gust Speed 35 mph    
Visibility 5 miles    
Events Rain    
T = Trace of Precipitation, MM = Missing Value Source: NWS Daily Summary

Daily Weather History Graph

Daily Weather History Graph

Search for Another Location

Airport or City:

Astronomy

Oct. 16, 2012 Rise Set
Actual Time 7:31 AM PDT 6:33 PM PDT
Civil Twilight 7:02 AM PDT 7:01 PM PDT
Nautical Twilight 6:30 AM PDT 7:33 PM PDT
Astronomical Twilight 5:58 AM PDT 8:05 PM PDT
Moon 9:02 AM PDT (10/16) 7:20 PM PDT (10/16)
Length of Visible Light 11h 58m
Length of Day
11h 02m
New Moon, 2% of the Moon is Illuminated
Oct 16
New Moon
Oct 21
First Quarter
Oct 29
Full
Nov 6
Last Quarter
Nov 13
New

Hourly Weather History & Observations

Time (PDT) Temp. Dew Point Humidity Pressure Visibility Wind Dir Wind Speed Gust Speed Precip Events Conditions
12:56 AM 57.9 °F 57.9 °F 100% 29.99 in 2.0 mi SSE 15.0 mph 23.0 mph 0.06 in Rain Rain
1:40 AM 59.0 °F 57.2 °F 94% 29.99 in 3.0 mi SSE 15.0 mph - 0.13 in Rain Rain
1:47 AM 59.0 °F 57.2 °F 94% 30.00 in 1.8 mi SSE 13.8 mph - 0.18 in Rain Heavy Rain
1:56 AM 59.0 °F 57.9 °F 96% 29.99 in 1.8 mi SSE 13.8 mph - 0.24 in Rain Rain
2:02 AM 59.0 °F 57.2 °F 94% 29.99 in 3.0 mi SE 19.6 mph 25.3 mph 0.01 in Rain Light Rain
2:09 AM 59.0 °F 57.2 °F 94% 29.99 in 2.5 mi SSE 13.8 mph 25.3 mph 0.02 in Rain Rain
2:44 AM 59.0 °F 57.2 °F 94% 30.00 in 1.2 mi SSE 10.4 mph - 0.30 in Rain Heavy Rain
3:30 AM 59.0 °F 59.0 °F 100% 30.00 in 5.0 mi South 8.1 mph - 0.10 in Rain Light Rain
4:17 AM 60.8 °F 59.0 °F 94% 30.00 in 2.0 mi Variable 4.6 mph - 0.04 in Rain Light Rain
5:20 AM 57.2 °F 55.4 °F 94% 30.03 in 1.8 mi NNW 12.7 mph 20.7 mph 0.06 in Rain Rain
5:26 AM 57.2 °F 55.4 °F 94% 30.03 in 2.0 mi NNW 13.8 mph 23.0 mph 0.07 in Rain Rain
5:48 AM 57.2 °F 55.4 °F 94% 30.03 in 6.0 mi NNW 11.5 mph - 0.08 in Rain Light Rain
5:56 AM 57.0 °F 55.9 °F 96% 30.03 in 8.0 mi NNW 6.9 mph - 0.08 in   Overcast
6:26 AM 55.4 °F 55.4 °F 100% 30.04 in 2.5 mi North 5.8 mph - N/A   Overcast
6:36 AM 55.4 °F 55.4 °F 100% 30.04 in 1.8 mi NNW 3.5 mph - N/A   Overcast
6:43 AM 57.2 °F 55.4 °F 94% 30.04 in 2.0 mi NW 3.5 mph - N/A   Overcast
6:52 AM 55.4 °F 55.4 °F 100% 30.05 in 1.8 mi NW 6.9 mph - N/A   Overcast
6:53 AM 55.4 °F 55.4 °F 100% 30.05 in 2.0 mi NW 6.9 mph - N/A   Overcast
6:56 AM 55.9 °F 55.0 °F 97% 30.05 in 2.5 mi NW 6.9 mph - N/A   Overcast
7:04 AM 57.2 °F 55.4 °F 94% 30.06 in 5.0 mi NNW 6.9 mph - N/A   Overcast
7:56 AM 55.0 °F 53.1 °F 93% 30.08 in 6.0 mi NW 10.4 mph - N/A   Partly Cloudy
8:51 AM 55.4 °F 55.4 °F 100% 30.10 in 5.0 mi NW 11.5 mph - N/A   Mostly Cloudy
9:24 AM 57.2 °F 55.4 °F 94% 30.11 in 5.0 mi NW 11.5 mph - N/A   Scattered Clouds
9:42 AM 57.2 °F 55.4 °F 94% 30.12 in 5.0 mi NNW 10.4 mph - N/A   Mostly Cloudy
9:56 AM 57.9 °F 55.0 °F 90% 30.13 in 5.0 mi NNW 12.7 mph - N/A   Mostly Cloudy
10:34 AM 57.2 °F 55.4 °F 94% 30.13 in 5.0 mi NNW 13.8 mph - N/A   Mostly Cloudy
10:56 AM 59.0 °F 55.9 °F 90% 30.14 in 5.0 mi NNW 9.2 mph - N/A   Partly Cloudy
11:56 AM 60.1 °F 55.0 °F 83% 30.15 in 6.0 mi NNW 13.8 mph - N/A   Haze
12:56 PM 60.1 °F 55.0 °F 83% 30.15 in 7.0 mi NNW 15.0 mph 21.9 mph N/A   Clear
1:56 PM 60.1 °F 54.0 °F 80% 30.14 in 7.0 mi NW 20.7 mph 27.6 mph N/A   Clear
2:56 PM 59.0 °F 53.1 °F 81% 30.13 in 7.0 mi NNW 20.7 mph 29.9 mph N/A   Clear
4:56 PM 57.9 °F 48.9 °F 72% 30.12 in 8.0 mi NNW 20.7 mph 32.2 mph N/A   Clear
5:56 PM 57.0 °F 48.0 °F 72% 30.13 in 8.0 mi NNW 20.7 mph 29.9 mph N/A   Clear
6:56 PM 55.0 °F 48.9 °F 80% 30.12 in 7.0 mi NNW 16.1 mph 23.0 mph N/A   Clear
7:56 PM 55.0 °F 48.9 °F 80% 30.14 in 8.0 mi NNW 16.1 mph 24.2 mph N/A   Clear
8:56 PM 54.0 °F 48.9 °F 83% 30.15 in 7.0 mi NNW 12.7 mph - N/A   Clear
9:56 PM 54.0 °F 48.9 °F 83% 30.14 in 8.0 mi NNW 11.5 mph - N/A   Clear
10:56 PM 54.0 °F 48.9 °F 83% 30.15 in 7.0 mi North 9.2 mph - N/A   Clear
11:56 PM 53.1 °F 48.0 °F 83% 30.14 in 9.0 mi North 6.9 mph - N/A   Clear